Weather Roundup
Issued by NWS Springfield, MO

Home | Current Version | Previous Version | Text Only | Print | Product List | Glossary On
Versions: 1 2 3 4 5 6 7 8 9 10 11 12 13 14 15 16 17 18 19 20 21 22 23 24 25 26 27 28 29 30 31 32 33 34 35 36 37 38 39 40 41 42 43 44 45 46 47 48 49 50
000
NZUS99 KSGF 191607
HRRSGF

HOURLY WEATHER
NATIONAL WEATHER SERVICE SPRINGFIELD MO
1100 AM CDT FRI SEP 19 2014

......SGF CWA......

CITY           SKY/WX    TMP DP  RH WIND       PRES   REMARKS
SPRINGFIELD    PTSUNNY   70  63  78 S9        30.07S
JOPLIN         SUNNY     74  66  76 S6        30.05R
WEST PLAINS    SUNNY     70  58  65 E6        30.10S
ROLLA          SUNNY     70  59  68 SE12      30.08F
OSAGE BEACH    SUNNY     72  61  68 SE6       30.09S
BRANSON        CLOUDY    72  63  73 SE5       30.09R

......SURROUNDING SGF CWA......

CITY           SKY/WX    TMP DP  RH WIND       PRES   REMARKS
CHANUTE        CLOUDY    68  66  93 S7        30.03F FOG
PARSONS        CLOUDY    69  67  93 VRB6      30.04S FOG
COFFEYVILLE    CLOUDY    68  67  96 S9        30.03S FOG
EMPORIA        CLOUDY    67  66  97 SE9       30.01F FOG
GROVE OK       CLOUDY    72  72 100 SE3       30.05S FOG
ROGERS AR      MOSUNNY   71  64  78 CALM      30.08R
SILOAM SPRINGS CLOUDY    73  64  73 S5        30.07S
HARRISON AR    PTSUNNY   69  63  81 VRB6      30.09R
NEAR YELLVILLE MOSUNNY   72  61  68 SE7       30.08R

......KANSAS AND MISSOURI......

CITY           SKY/WX    TMP DP  RH WIND       PRES   REMARKS
KANSAS CTY INT CLOUDY    65  64  97 S9        30.03S FOG
DOWNTOWN KC    CLOUDY    67  63  87 S8        30.03S FOG
SEDALIA        PTSUNNY   71  61  70 S12       30.07S
ST JOSEPH      CLOUDY    67  63  87 S9        30.02S
ST LOUIS       MOSUNNY   71  56  58 E7        30.11F
SPIRIT OF STL  SUNNY     70  57  63 CALM      30.10S
KIRKSVILLE       N/A     70  57  63 S12       30.07
WICHITA        SUNNY     80  66  62 S8        29.99F
TOPEKA         CLOUDY    69  66  90 SE9       30.01F
OLATHE         CLOUDY    65  64  97 S8        30.02F FOG

......TENNESSEE......

CITY           SKY/WX    TMP DP  RH WIND       PRES   REMARKS
MEMPHIS        MOSUNNY   78  64  61 E5        30.05R
NASHVILLE      SUNNY     77  60  55 VRB3      30.08F

......ARKANSAS.......

CITY           SKY/WX    TMP DP  RH WIND       PRES   REMARKS
FAYETTEVILLE   PTSUNNY   74  67  78 CALM      30.06R
FT SMITH       CLOUDY    74  66  76 E7        30.04R
LITTLE ROCK    MOSUNNY   76  66  71 CALM      30.04S

......OKLAHOMA.......

CITY           SKY/WX    TMP DP  RH WIND       PRES   REMARKS
TULSA          CLOUDY    72  69  90 S6        30.02R FOG
PONCA CITY     MOSUNNY   75  68  78 S8        30.00S
MCALESTER      CLOUDY    76  70  82 S5        30.03R
OKLAHOMA CITY  MOSUNNY   76  70  82 S7        30.01S

......IOWA............

CITY           SKY/WX    TMP DP  RH WIND       PRES   REMARKS
DES MOINES     PTSUNNY   70  61  73 S16G28    29.99S
QUAD CITIES    SUNNY     69  54  58 S13G20    30.09F

......ILLINOIS........

CITY           SKY/WX    TMP DP  RH WIND       PRES   REMARKS
QUINCY         SUNNY     70  55  59 S10       30.10F
CHICAGO        MOSUNNY   66  51  58 S13       30.15F



USA.gov is the U.S. government's official web portal to all federal, state and local government web resources and services.